Location: Del Amo
(33.8464°N, 118.2104°W)
Time: 17:21:29
(UTC+00:00)

Vanguard 2 Rocket - Pass Details

Date: 22 September 2024
Orbit: 553 x 3298 km, 32.9° (Epoch: 11 October)

Event Time Altitude Azimuth Distance (km) Brightness Sun altitude
Rises 10:14:11 0° 275° (W) 4,241 - -41.4°
Reaches altitude 10° 10:16:31 10° 275° (W) 3,540 - -41.0°
Exits shadow 10:26:01 82° 201° (SSW) 2,108 8.4 -39.4°
Maximum altitude 10:26:11 82° 189° (S) 2,119 8.4 -39.4°
Drops below altitude 10° 10:43:16 10° 105° (ESE) 5,878 11.4 -36.3°
Sets 10:48:25 0° 105° (ESE) 7,116 12.0 -35.4°
